QPF
0.05 0.05 0.06 0.11 0.13 0.13 0.19 0.26 0.29 0.33 0.34 0.33 0.30 0.28 0.29 0.31 0.34 0.33 0.25 0.24 0.20 0.17 0.19 0.15 0.14 0.15 0.19 0.23 0.22 0.23 0.22 0.19 0.18 0.20 0.20 0.18 0.13 0.09 0.08 0.08 0.08 0.07 0.06
0.08 0.07 0.09 0.09 0.10 0.15 0.16 0.25 0.25 0.23 0.23 0.24 0.25 0.30 0.32 0.30 0.28 0.24 0.22 0.17 0.14 0.14 0.16 0.14 0.13 0.12 0.14 0.19 0.22 0.23 0.22 0.19 0.16 0.17 0.16 0.13 0.12 0.10 0.08 0.09 0.08 0.08 0.07
0.08 0.07 0.08 0.08 0.05 0.09 0.12 0.15 0.21 0.22 0.22 0.23 0.24 0.29 0.31 0.24 0.25 0.20 0.16 0.14 0.12 0.12 0.14 0.15 0.15 0.14 0.15 0.17 0.19 0.21 0.20 0.18 0.19 0.16 0.15 0.12 0.09 0.07 0.06 0.05 0.06 0.07 0.09
0.11 0.09 0.06 0.05 0.04 0.04 0.08 0.11 0.14 0.15 0.16 0.22 0.24 0.22 0.23 0.22 0.26 0.24 0.19 0.16 0.13 0.14 0.15 0.18 0.19 0.17 0.16 0.16 0.16 0.18 0.20 0.21 0.22 0.19 0.15 0.11 0.07 0.07 0.06 0.06 0.06 0.06 0.06
0.10 0.08 0.05 0.03 0.04 0.04 0.03 0.05 0.08 0.09 0.10 0.13 0.16 0.15 0.15 0.14 0.20 0.19 0.16 0.14 0.13 0.12 0.11 0.11 0.14 0.15 0.15 0.13 0.12 0.14 0.17 0.20 0.22 0.21 0.17 0.13 0.11 0.08 0.06 0.06 0.07 0.07 0.07
0.08 0.06 0.04 0.03 0.04 0.05 0.03 0.03 0.05 0.05 0.06 0.08 0.09 0.10 0.10 0.11 0.15 0.11 0.08 0.08 0.08 0.08 0.08 0.08 0.11 0.15 0.15 0.13 0.10 0.11 0.11 0.13 0.16 0.20 0.17 0.14 0.13 0.11 0.08 0.07 0.08 0.08 0.07
0.05 0.04 0.03 0.02 0.02 0.03 0.02 0.02 0.03 0.05 0.05 0.04 0.07 0.08 0.07 0.07 0.09 0.10 0.08 0.08 0.07 0.07 0.08 0.07 0.07 0.09 0.11 0.11 0.09 0.08 0.09 0.09 0.10 0.12 0.13 0.12 0.12 0.10 0.09 0.08 0.09 0.08 0.06
0.03 0.03 0.03 0.01 0.01 0.02 0.02 0.02 0.02 0.03 0.04 0.03 0.04 0.05 0.06 0.05 0.07 0.09 0.10 0.10 0.10 0.10 0.09 0.07 0.06 0.06 0.06 0.06 0.06 0.05 0.05 0.05 0.06 0.07 0.08 0.08 0.08 0.08 0.07 0.06 0.05 0.05 0.05
0.02 0.02 0.02 0.02 0.02 0.02 0.02 0.02 0.02 0.02 0.02 0.02 0.03 0.04 0.03 0.04 0.05 0.07 0.08 0.10 0.11 0.09 0.07 0.06 0.05 0.04 0.04 0.04 0.04 0.05 0.05 0.05 0.06 0.06 0.06 0.05 0.04 0.04 0.05 0.05 0.04 0.04 0.04
0.03 0.02 0.02 0.02 0.02 0.02 0.02 0.02 0.01 0.01 0.02 0.02 0.02 0.03 0.03 0.03 0.03 0.04 0.06 0.06 0.07 0.06 0.05 0.05 0.04 0.03 0.04 0.04 0.05 0.05 0.05 0.05 0.05 0.04 0.03 0.02 0.02 0.02 0.02 0.02 0.02 0.02 0.03
0.01 0.01 0.01 0.01 0.01 0.01 0.01 0.01 0.01 0.01 0.02 0.03 0.03 0.03 0.03 0.03 0.03 0.03 0.04 0.04 0.04 0.03 0.03 0.03 0.03 0.02 0.03 0.03 0.04 0.04 0.03 0.02 0.02 0.02 0.02 0.02 0.02 0.01 0.01 0.01 0.01 0.01 0.02
0.01 0.01 0.00 0.00 0.00 0.00 0.00 0.01 0.01 0.01 0.02 0.02 0.03 0.04 0.04 0.04 0.03 0.04 0.04 0.04 0.04 0.03 0.02 0.03 0.03 0.03 0.03 0.02 0.02 0.02 0.02 0.02 0.01 0.01 0.01 0.02 0.02 0.01 0.01 0.01 0.01 0.01 0.01
0.01 0.01 0.01 0.00 0.00 0.01 0.01 0.01 0.01 0.01 0.02 0.02 0.02 0.02 0.03 0.04 0.04 0.04 0.04 0.04 0.04 0.04 0.04 0.03 0.02 0.03 0.02 0.02 0.02 0.02 0.02 0.02 0.02 0.02 0.02 0.02 0.02 0.02 0.01 0.01 0.01 0.01 0.00
0.01 0.01 0.01 0.01 0.01 0.01 0.02 0.02 0.02 0.02 0.02 0.02 0.02 0.02 0.02 0.03 0.04 0.04 0.04 0.04 0.05 0.05 0.04 0.04 0.03 0.02 0.02 0.02 0.02 0.02 0.02 0.02 0.02 0.01 0.01 0.01 0.01 0.01 0.01 0.01 0.01 0.01 0.00
0.01 0.01 0.01 0.01 0.01 0.02 0.03 0.03 0.03 0.02 0.03 0.03 0.02 0.02 0.02 0.02 0.02 0.03 0.03 0.03 0.04 0.05 0.05 0.05 0.04 0.04 0.03 0.03 0.03 0.03 0.03 0.03 0.03 0.03 0.02 0.02 0.01 0.01 0.01 0.01 0.01 0.01 0.01
0.01 0.01 0.02 0.02 0.02 0.03 0.05 0.03 0.02 0.03 0.03 0.02 0.02 0.02 0.02 0.02 0.02 0.02 0.03 0.04 0.05 0.06 0.06 0.06 0.06 0.05 0.05 0.04 0.03 0.03 0.03 0.03 0.03 0.03 0.02 0.02 0.01 0.01 0.01 0.01 0.01 0.01 0.01
0.01 0.02 0.02 0.03 0.03 0.04 0.05 0.03 0.02 0.04 0.03 0.02 0.02 0.02 0.02 0.02 0.02 0.02 0.03 0.04 0.04 0.05 0.05 0.05 0.05 0.05 0.04 0.04 0.03 0.03 0.03 0.03 0.03 0.02 0.02 0.01 0.01 0.00 0.00 0.01 0.01 0.01 0.01
0.02 0.02 0.02 0.02 0.02 0.03 0.03 0.02 0.02 0.03 0.02 0.01 0.02 0.02 0.02 0.02 0.02 0.03 0.03 0.04 0.04 0.04 0.04 0.04 0.04 0.04 0.04 0.03 0.02 0.02 0.02 0.02 0.02 0.02 0.01 0.00 0.00 0.00 0.00 0.00 0.00 0.00 0.01
0.02 0.02 0.02 0.03 0.02 0.02 0.02 0.02 0.02 0.02 0.02 0.02 0.02 0.02 0.03 0.03 0.03 0.03 0.03 0.03 0.03 0.03 0.03 0.03 0.03 0.03 0.03 0.03 0.02 0.02 0.01 0.01 0.01 0.01 0.00 0.00 0.00 0.00 0.00 0.00 0.00 0.00 0.00
0.02 0.02 0.03 0.03 0.03 0.03 0.03 0.03 0.03 0.02 0.02 0.03 0.03 0.03 0.03 0.03 0.02 0.02 0.02 0.02 0.02 0.03 0.03 0.03 0.02 0.02 0.02 0.02 0.02 0.01 0.01 0.01 0.00 0.00 0.00 0.00 0.00 0.00 0.00 0.00 0.00 0.00 0.00
0.03 0.03 0.03 0.03 0.03 0.04 0.03 0.04 0.04 0.03 0.02 0.02 0.02 0.02 0.02 0.02 0.01 0.01 0.01 0.01 0.02 0.02 0.02 0.02 0.02 0.01 0.01 0.01 0.01 0.01 0.00 0.00 0.00 0.00 0.00 0.00 0.00 0.00 0.00 0.00 0.00 0.00 0.00
0.03 0.03 0.03 0.04 0.04 0.04 0.03 0.04 0.04 0.04 0.03 0.02 0.02 0.02 0.02 0.01 0.01 0.01 0.01 0.01 0.01 0.01 0.01 0.01 0.01 0.00 0.00 0.00 0.00 0.00 0.00 0.00 0.00 0.00 0.00 0.00 0.00 0.00 0.00 0.00 0.00 0.00 0.00
0.03 0.03 0.03 0.03 0.04 0.03 0.04 0.04 0.04 0.04 0.03 0.03 0.03 0.02 0.02 0.02 0.01 0.01 0.01 0.01 0.01 0.00 0.00 0.00 0.00 0.00 0.00 0.00 0.00 0.00 0.00 0.00 0.00 0.00 0.00 0.00 0.00 0.00 0.00 0.00 0.00 0.00 0.00
0.03 0.03 0.03 0.03 0.03 0.02 0.03 0.03 0.03 0.03 0.04 0.03 0.03 0.03 0.02 0.01 0.01 0.01 0.00 0.00 0.00 0.00 0.00 0.00 0.00 0.00 0.00 0.00 0.00 0.00 0.00 0.00 0.00 0.00 0.00 0.00 0.00 0.00 0.00 0.00 0.00 0.00 0.00
0.02 0.02 0.02 0.02 0.02 0.02 0.02 0.02 0.02 0.02 0.02 0.02 0.02 0.01 0.01 0.01 0.01 0.00 0.00 0.00 0.00 0.00 0.00 0.00 0.00 0.00 0.00 0.00 0.00 0.00 0.00 0.00 0.00 0.00 0.00 0.00 0.01 0.01 0.01 0.01 0.01 0.01 0.00
0.02 0.01 0.02 0.02 0.02 0.02 0.01 0.01 0.01 0.01 0.01 0.01 0.01 0.00 0.00 0.00 0.00 0.00 0.00 0.00 0.00 0.00 0.00 0.00 0.00 0.00 0.00 0.00 0.00 0.00 0.00 0.00 0.00 0.00 0.00 0.00 0.00 0.01 0.02 0.03 0.02 0.02 0.02
MSLP
1013.95 1014.02 1014.03 1013.97 1013.85 1013.67 1013.46 1013.27 1013.13 1013.09 1013.15 1013.33 1013.62 1013.99 1014.39 1014.78 1015.12 1015.38 1015.55 1015.63 1015.65 1015.62 1015.61 1015.64 1015.74 1015.94 1016.24 1016.64 1017.13 1017.68 1018.27 1018.88 1019.49 1020.08 1020.64 1021.16 1021.62 1022.03 1022.37 1022.64 1022.83 1022.97 1023.04
1014.28 1014.44 1014.51 1014.48 1014.33 1014.09 1013.79 1013.49 1013.24 1013.12 1013.14 1013.31 1013.63 1014.04 1014.50 1014.95 1015.33 1015.61 1015.77 1015.82 1015.79 1015.72 1015.65 1015.63 1015.69 1015.85 1016.13 1016.51 1016.97 1017.51 1018.08 1018.68 1019.29 1019.89 1020.47 1021.02 1021.54 1022.02 1022.45 1022.81 1023.11 1023.34 1023.51
1014.52 1014.79 1014.96 1014.99 1014.86 1014.58 1014.20 1013.80 1013.44 1013.21 1013.15 1013.29 1013.59 1014.02 1014.53 1015.03 1015.46 1015.78 1015.97 1016.03 1015.99 1015.89 1015.79 1015.72 1015.74 1015.86 1016.09 1016.42 1016.84 1017.32 1017.86 1018.42 1018.99 1019.58 1020.16 1020.73 1021.29 1021.84 1022.35 1022.81 1023.23 1023.58 1023.85
1014.71 1015.11 1015.40 1015.52 1015.43 1015.14 1014.70 1014.20 1013.73 1013.38 1013.22 1013.27 1013.53 1013.95 1014.47 1015.02 1015.51 1015.89 1016.13 1016.24 1016.23 1016.15 1016.04 1015.96 1015.94 1016.02 1016.19 1016.46 1016.81 1017.22 1017.68 1018.18 1018.70 1019.23 1019.79 1020.36 1020.94 1021.53 1022.12 1022.68 1023.20 1023.66 1024.05
1014.89 1015.42 1015.84 1016.06 1016.04 1015.76 1015.29 1014.71 1014.13 1013.65 1013.36 1013.31 1013.49 1013.87 1014.39 1014.97 1015.52 1015.97 1016.29 1016.48 1016.54 1016.50 1016.42 1016.35 1016.31 1016.35 1016.46 1016.66 1016.93 1017.26 1017.63 1018.04 1018.48 1018.96 1019.46 1020.00 1020.58 1021.19 1021.82 1022.45 1023.06 1023.62 1024.11
1015.08 1015.74 1016.29 1016.62 1016.67 1016.43 1015.95 1015.31 1014.63 1014.04 1013.63 1013.46 1013.55 1013.87 1014.36 1014.95 1015.54 1016.07 1016.48 1016.76 1016.90 1016.94 1016.91 1016.86 1016.83 1016.84 1016.90 1017.04 1017.23 1017.47 1017.75 1018.07 1018.42 1018.81 1019.24 1019.72 1020.27 1020.86 1021.51 1022.17 1022.84 1023.47 1024.04
1015.29 1016.05 1016.72 1017.15 1017.29 1017.11 1016.64 1015.98 1015.25 1014.57 1014.06 1013.78 1013.77 1014.01 1014.46 1015.04 1015.65 1016.23 1016.72 1017.09 1017.32 1017.44 1017.47 1017.46 1017.44 1017.43 1017.47 1017.55 1017.68 1017.84 1018.04 1018.27 1018.53 1018.82 1019.17 1019.58 1020.06 1020.62 1021.24 1021.91 1022.60 1023.27 1023.88
1015.50 1016.35 1017.10 1017.64 1017.87 1017.76 1017.35 1016.72 1015.97 1015.25 1014.67 1014.31 1014.21 1014.37 1014.75 1015.29 1015.90 1016.50 1017.03 1017.46 1017.76 1017.94 1018.04 1018.06 1018.07 1018.07 1018.09 1018.14 1018.22 1018.32 1018.45 1018.61 1018.79 1019.01 1019.27 1019.60 1020.01 1020.49 1021.07 1021.70 1022.38 1023.05 1023.68
1015.71 1016.61 1017.44 1018.06 1018.38 1018.37 1018.04 1017.47 1016.77 1016.06 1015.46 1015.05 1014.88 1014.97 1015.27 1015.74 1016.30 1016.88 1017.41 1017.86 1018.19 1018.42 1018.55 1018.61 1018.64 1018.65 1018.67 1018.71 1018.77 1018.85 1018.94 1019.05 1019.17 1019.33 1019.52 1019.77 1020.10 1020.52 1021.02 1021.60 1022.23 1022.88 1023.49
1015.92 1016.85 1017.71 1018.40 1018.80 1018.89 1018.67 1018.22 1017.61 1016.97 1016.39 1015.97 1015.76 1015.77 1015.99 1016.36 1016.84 1017.35 1017.84 1018.26 1018.59 1018.83 1018.98 1019.06 1019.10 1019.13 1019.17 1019.21 1019.27 1019.35 1019.44 1019.53 1019.63 1019.75 1019.90 1020.10 1020.36 1020.70 1021.13 1021.63 1022.20 1022.80 1023.39
1016.13 1017.06 1017.94 1018.66 1019.13 1019.32 1019.23 1018.91 1018.44 1017.90 1017.40 1017.01 1016.78 1016.73 1016.85 1017.12 1017.48 1017.89 1018.29 1018.65 1018.93 1019.15 1019.29 1019.38 1019.44 1019.49 1019.54 1019.61 1019.70 1019.80 1019.91 1020.02 1020.13 1020.25 1020.38 1020.54 1020.76 1021.03 1021.39 1021.83 1022.33 1022.86 1023.40
1016.37 1017.28 1018.14 1018.87 1019.39 1019.66 1019.70 1019.53 1019.20 1018.80 1018.40 1018.06 1017.83 1017.74 1017.78 1017.93 1018.17 1018.45 1018.74 1019.01 1019.23 1019.40 1019.53 1019.61 1019.68 1019.75 1019.84 1019.94 1020.06 1020.20 1020.35 1020.50 1020.64 1020.78 1020.92 1021.07 1021.26 1021.50 1021.80 1022.17 1022.60 1023.07 1023.56
1016.65 1017.53 1018.35 1019.06 1019.60 1019.94 1020.08 1020.04 1019.87 1019.61 1019.32 1019.05 1018.84 1018.71 1018.68 1018.73 1018.85 1019.01 1019.19 1019.36 1019.51 1019.64 1019.74 1019.82 1019.90 1019.99 1020.10 1020.23 1020.39 1020.57 1020.77 1020.96 1021.15 1021.32 1021.49 1021.66 1021.84 1022.05 1022.31 1022.63 1022.99 1023.41 1023.84
1017.00 1017.83 1018.59 1019.25 1019.78 1020.16 1020.38 1020.46 1020.41 1020.28 1020.10 1019.90 1019.73 1019.58 1019.49 1019.46 1019.48 1019.53 1019.62 1019.72 1019.81 1019.91 1019.99 1020.07 1020.16 1020.27 1020.40 1020.55 1020.74 1020.96 1021.18 1021.42 1021.65 1021.86 1022.06 1022.25 1022.44 1022.64 1022.88 1023.15 1023.46 1023.82 1024.20
1017.41 1018.17 1018.86 1019.46 1019.96 1020.34 1020.61 1020.77 1020.83 1020.81 1020.72 1020.59 1020.44 1020.30 1020.17 1020.08 1020.03 1020.03 1020.05 1020.10 1020.17 1020.26 1020.34 1020.43 1020.53 1020.65 1020.79 1020.96 1021.15 1021.38 1021.62 1021.88 1022.14 1022.39 1022.62 1022.83 1023.03 1023.23 1023.44 1023.68 1023.94 1024.25 1024.57
1017.84 1018.54 1019.16 1019.69 1020.14 1020.51 1020.80 1021.01 1021.13 1021.18 1021.17 1021.09 1020.98 1020.84 1020.71 1020.59 1020.52 1020.48 1020.49 1020.53 1020.61 1020.71 1020.81 1020.92 1021.04 1021.16 1021.30 1021.45 1021.64 1021.85 1022.09 1022.35 1022.62 1022.88 1023.12 1023.35 1023.56 1023.76 1023.96 1024.16 1024.39 1024.64 1024.91
1018.26 1018.90 1019.45 1019.91 1020.31 1020.66 1020.95 1021.18 1021.34 1021.44 1021.47 1021.43 1021.35 1021.23 1021.10 1020.99 1020.92 1020.90 1020.92 1021.00 1021.11 1021.25 1021.39 1021.53 1021.66 1021.78 1021.90 1022.04 1022.19 1022.37 1022.58 1022.81 1023.07 1023.32 1023.57 1023.81 1024.02 1024.22 1024.40 1024.58 1024.76 1024.96 1025.17
1018.61 1019.20 1019.69 1020.11 1020.46 1020.78 1021.06 1021.29 1021.48 1021.60 1021.65 1021.64 1021.58 1021.49 1021.39 1021.30 1021.26 1021.28 1021.35 1021.48 1021.65 1021.84 1022.02 1022.19 1022.34 1022.46 1022.56 1022.66 1022.77 1022.90 1023.07 1023.27 1023.49 1023.73 1023.97 1024.20 1024.41 1024.60 1024.76 1024.91 1025.05 1025.20 1025.35
1018.87 1019.42 1019.87 1020.25 1020.58 1020.88 1021.14 1021.37 1021.56 1021.69 1021.76 1021.77 1021.73 1021.66 1021.59 1021.54 1021.55 1021.62 1021.75 1021.95 1022.17 1022.42 1022.65 1022.85 1023.01 1023.12 1023.20 1023.27 1023.33 1023.42 1023.53 1023.69 1023.88 1024.09 1024.32 1024.54 1024.74 1024.91 1025.06 1025.17 1025.28 1025.37 1025.46
1019.02 1019.55 1019.98 1020.33 1020.65 1020.93 1021.19 1021.42 1021.61 1021.74 1021.82 1021.84 1021.82 1021.78 1021.74 1021.74 1021.80 1021.92 1022.12 1022.37 1022.65 1022.94 1023.21 1023.43 1023.60 1023.71 1023.77 1023.81 1023.84 1023.88 1023.96 1024.08 1024.25 1024.44 1024.65 1024.85 1025.04 1025.20 1025.32 1025.41 1025.47 1025.51 1025.54
1019.10 1019.60 1020.01 1020.37 1020.68 1020.96 1021.22 1021.45 1021.63 1021.77 1021.85 1021.89 1021.89 1021.88 1021.88 1021.92 1022.02 1022.19 1022.43 1022.73 1023.05 1023.37 1023.66 1023.90 1024.07 1024.18 1024.23 1024.25 1024.27 1024.29 1024.35 1024.45 1024.59 1024.77 1024.97 1025.16 1025.33 1025.47 1025.57 1025.62 1025.65 1025.64 1025.63
1019.14 1019.62 1020.02 1020.37 1020.68 1020.97 1021.23 1021.45 1021.64 1021.79 1021.88 1021.93 1021.96 1021.98 1022.02 1022.10 1022.24 1022.45 1022.71 1023.03 1023.37 1023.70 1024.00 1024.24 1024.42 1024.53 1024.58 1024.60 1024.62 1024.64 1024.69 1024.79 1024.93 1025.10 1025.28 1025.46 1025.61 1025.73 1025.81 1025.84 1025.82 1025.78 1025.72
1019.20 1019.64 1020.03 1020.37 1020.68 1020.96 1021.22 1021.45 1021.64 1021.80 1021.91 1021.99 1022.05 1022.10 1022.18 1022.30 1022.47 1022.70 1022.98 1023.30 1023.63 1023.96 1024.25 1024.48 1024.65 1024.77 1024.83 1024.87 1024.89 1024.93 1025.00 1025.11 1025.25 1025.41 1025.58 1025.74 1025.88 1025.97 1026.02 1026.02 1025.99 1025.92 1025.83
1019.31 1019.72 1020.08 1020.40 1020.69 1020.96 1021.21 1021.44 1021.64 1021.80 1021.94 1022.05 1022.15 1022.25 1022.37 1022.53 1022.72 1022.96 1023.25 1023.55 1023.87 1024.17 1024.44 1024.66 1024.82 1024.94 1025.02 1025.07 1025.12 1025.18 1025.27 1025.39 1025.53 1025.68 1025.84 1025.98 1026.09 1026.15 1026.18 1026.16 1026.10 1026.02 1025.92
1019.51 1019.87 1020.19 1020.47 1020.73 1020.98 1021.21 1021.42 1021.62 1021.81 1021.97 1022.13 1022.27 1022.43 1022.59 1022.78 1023.01 1023.26 1023.53 1023.82 1024.10 1024.37 1024.61 1024.81 1024.96 1025.08 1025.17 1025.24 1025.31 1025.39 1025.49 1025.61 1025.75 1025.89 1026.02 1026.13 1026.20 1026.24 1026.24 1026.21 1026.14 1026.05 1025.96
1019.78 1020.09 1020.36 1020.59 1020.81 1021.01 1021.21 1021.41 1021.61 1021.81 1022.00 1022.20 1022.40 1022.61 1022.82 1023.06 1023.30 1023.56 1023.83 1024.09 1024.34 1024.58 1024.78 1024.95 1025.09 1025.20 1025.29 1025.37 1025.46 1025.55 1025.65 1025.77 1025.88 1025.99 1026.09 1026.16 1026.20 1026.21 1026.18 1026.14 1026.08 1026.01 1025.93
Thickness
5700 5701 5701 5702 5701 5701 5702 5702 5701 5702 5702 5700 5698 5697 5695 5694 5694 5695 5696 5696 5696 5697 5696 5696 5696 5696 5696 5695 5694 5691 5688 5686 5685 5682 5677 5675 5676 5676 5676 5675 5674 5673 5672
5691 5690 5691 5691 5690 5690 5690 5691 5691 5692 5693 5693 5692 5691 5689 5687 5687 5686 5687 5687 5688 5690 5690 5690 5690 5690 5690 5689 5688 5687 5682 5679 5680 5677 5671 5666 5664 5666 5667 5667 5666 5665 5664
5682 5679 5679 5678 5677 5677 5678 5679 5680 5681 5684 5685 5684 5683 5680 5679 5677 5677 5678 5678 5680 5682 5682 5683 5683 5683 5683 5682 5681 5681 5679 5674 5673 5674 5670 5663 5658 5657 5656 5657 5657 5656 5655
5674 5670 5668 5666 5666 5665 5667 5668 5668 5670 5672 5673 5673 5672 5670 5668 5667 5667 5668 5669 5671 5673 5674 5674 5675 5675 5674 5674 5674 5674 5673 5670 5666 5666 5667 5666 5662 5654 5648 5646 5646 5646 5646
5665 5661 5658 5656 5655 5655 5655 5656 5657 5657 5659 5660 5661 5660 5659 5659 5657 5657 5658 5659 5661 5663 5664 5665 5666 5666 5665 5665 5665 5664 5664 5663 5661 5660 5658 5656 5654 5652 5646 5639 5636 5635 5634
5656 5652 5649 5647 5645 5645 5644 5645 5645 5645 5646 5648 5649 5649 5648 5647 5647 5646 5647 5648 5649 5651 5652 5653 5654 5655 5655 5655 5655 5654 5654 5654 5654 5653 5652 5649 5647 5644 5641 5635 5630 5626 5623
5647 5643 5638 5636 5634 5633 5633 5634 5634 5633 5634 5636 5637 5637 5637 5637 5636 5636 5636 5637 5638 5639 5640 5641 5642 5643 5643 5644 5644 5643 5643 5643 5642 5642 5641 5641 5640 5638 5636 5630 5622 5617 5613
5637 5633 5629 5626 5624 5622 5622 5622 5622 5622 5623 5624 5624 5624 5624 5625 5624 5624 5625 5625 5625 5626 5628 5630 5630 5631 5632 5632 5632 5631 5630 5630 5630 5630 5630 5629 5629 5629 5627 5622 5616 5608 5603
5629 5625 5621 5617 5614 5612 5611 5611 5610 5610 5611 5612 5612 5612 5612 5612 5612 5613 5613 5613 5614 5615 5616 5617 5618 5619 5619 5619 5619 5619 5617 5617 5617 5617 5617 5617 5617 5617 5616 5614 5611 5606 5597
5623 5618 5614 5609 5605 5602 5600 5599 5599 5599 5600 5600 5600 5600 5599 5599 5600 5601 5601 5602 5602 5602 5604 5605 5605 5606 5606 5606 5606 5606 5605 5605 5604 5604 5604 5604 5604 5604 5603 5602 5600 5599 5594
5617 5611 5605 5601 5596 5593 5591 5589 5588 5587 5587 5588 5588 5587 5587 5588 5588 5589 5589 5589 5589 5590 5591 5592 5592 5592 5592 5592 5593 5592 5592 5592 5591 5591 5591 5590 5590 5591 5590 5590 5589 5586 5584
5610 5604 5598 5593 5588 5584 5581 5579 5577 5576 5575 5575 5575 5575 5575 5575 5575 5575 5576 5576 5576 5577 5578 5579 5579 5579 5579 5579 5579 5579 5578 5578 5578 5578 5578 5577 5578 5577 5577 5577 5576 5574 5572
5602 5595 5589 5583 5578 5574 5571 5569 5568 5565 5564 5563 5563 5562 5562 5562 5563 5563 5563 5564 5564 5564 5565 5566 5566 5566 5566 5567 5566 5566 5565 5565 5565 5566 5565 5565 5565 5564 5563 5563 5562 5561 5560
5593 5586 5578 5573 5568 5564 5561 5559 5556 5555 5553 5552 5551 5550 5550 5550 5550 5551 5552 5552 5552 5552 5552 5553 5553 5553 5554 5554 5554 5554 5553 5553 5553 5553 5553 5553 5553 5552 5552 5551 5549 5548 5546
5585 5578 5570 5563 5558 5554 5551 5548 5546 5544 5543 5541 5540 5539 5539 5539 5539 5540 5540 5540 5541 5540 5540 5541 5541 5541 5542 5542 5542 5542 5542 5541 5541 5541 5541 5542 5542 5542 5541 5540 5537 5536 5534
5579 5570 5563 5556 5550 5546 5542 5539 5536 5534 5532 5531 5531 5530 5530 5529 5529 5529 5529 5529 5529 5529 5529 5529 5529 5530 5530 5531 5532 5532 5530 5530 5530 5530 5530 5531 5531 5531 5530 5530 5529 5527 5524
5572 5563 5556 5549 5543 5538 5534 5530 5527 5526 5524 5523 5522 5521 5521 5520 5520 5520 5520 5519 5518 5518 5518 5518 5518 5518 5519 5521 5522 5522 5522 5521 5520 5520 5521 5522 5521 5521 5520 5520 5520 5518 5516
5565 5556 5548 5541 5535 5531 5527 5524 5521 5519 5517 5516 5515 5514 5513 5512 5512 5511 5511 5510 5510 5510 5509 5509 5510 5510 5510 5512 5514 5514 5513 5512 5512 5512 5512 5511 5511 5512 5511 5511 5509 5507 5506
5558 5550 5542 5535 5529 5524 5521 5518 5515 5513 5511 5510 5509 5508 5507 5506 5505 5504 5503 5503 5503 5503 5502 5502 5502 5502 5503 5505 5506 5506 5505 5504 5503 5504 5504 5504 5503 5503 5503 5502 5499 5498 5497
5550 5543 5536 5529 5523 5519 5516 5513 5510 5507 5505 5505 5504 5503 5502 5501 5500 5498 5497 5497 5497 5496 5496 5495 5494 5495 5495 5497 5498 5499 5498 5496 5495 5496 5496 5496 5496 5496 5495 5493 5491 5489 5489
5544 5537 5530 5523 5518 5515 5511 5508 5505 5503 5502 5501 5499 5498 5497 5496 5495 5493 5492 5492 5491 5490 5489 5488 5487 5487 5488 5489 5490 5491 5491 5490 5489 5489 5488 5489 5490 5490 5489 5488 5486 5485 5485
5537 5530 5524 5518 5514 5511 5507 5503 5501 5501 5499 5498 5496 5494 5493 5493 5492 5490 5488 5487 5486 5484 5482 5481 5480 5480 5482 5483 5484 5485 5486 5486 5484 5483 5483 5484 5486 5486 5486 5485 5484 5483 5482
5532 5526 5520 5514 5510 5507 5504 5501 5499 5498 5496 5494 5492 5491 5490 5489 5488 5486 5485 5483 5482 5480 5478 5477 5476 5476 5477 5478 5479 5480 5481 5481 5480 5480 5481 5482 5483 5483 5482 5482 5481 5480 5478
5527 5521 5516 5511 5507 5505 5503 5500 5498 5497 5494 5491 5490 5488 5486 5485 5484 5483 5482 5480 5479 5477 5476 5475 5473 5472 5472 5473 5474 5475 5476 5477 5477 5477 5478 5479 5480 5479 5479 5478 5478 5477 5476
5524 5519 5513 5509 5506 5503 5501 5499 5498 5496 5492 5490 5488 5486 5484 5482 5480 5479 5478 5477 5477 5477 5476 5474 5472 5470 5469 5469 5471 5471 5471 5472 5472 5473 5474 5474 5473 5473 5473 5473 5474 5474 5473
5522 5516 5512 5508 5505 5503 5500 5499 5497 5495 5491 5488 5486 5484 5482 5480 5479 5477 5475 5476 5477 5477 5477 5476 5473 5472 5471 5470 5470 5470 5470 5471 5471 5470 5468 5468 5468 5469 5469 5469 5470 5471 5471